Details for Norwegian Air Shuttle at ENZV




Go Back


Latest METAR
Local Time

ENZV 250420Z 11004KT CAVOK 12/10 Q1027 NOSIG

25/05/2018, 06:53:37

Description
Results
Norwegian Air Shuttle Logo
Number of Pilots based at ENZV
0 Pilots Based here
Number of Norwegian Air Shuttle Flights Departed from ENZV
1 Flights Departed
Number of Norwegian Air Shuttle Flights Arrived at ENZV
1 Flights Arrived
Number of Norwegian Air Shuttle Schedules Departing from ENZV
32 Schedules
Number of Norwegian Air Shuttle Schedules Arriving at ENZV
31 Schedules
Number of Norwegian Air Shuttle Schedules Departing from ENZV availible today
18 Schedules Today
Number of Norwegian Air Shuttle Schedules Arriving at ENZV availible today
18 Schedules Today
Average Landing Rate at ENZV
-286 fpm
Norwegian Air Shuttle Average Landing Rate at ENZV
-192 fpm
Total Fuel Purchased at ENZV by Norwegian Air Shuttle
5,007.21 kgs / 11,038.90 lbs

Pilots Based at ENZV


Pilot ID
Pilot Name
Pilot Rank
No. of Flights
No. of Flying Hours
There are no pilots assigned to this hub!   Will you be the first?
Content